Location: Bath
(51.4030°N, 2.3976°W)
Time: 04:08:23
(UTC+00:00)

ISS - Visible Passes

Search period start: 22 January 2018 00:00
Search period end: 01 February 2018 00:00
Orbit: 402 x 407 km, 51.6° (Epoch: 22 January)

Date Brightness Start Highest point End Pass type
(mag) Time Alt. Az. Time Alt. Az. Time Alt. Az.
26 Jan -1.1 19:28:26 10° SW 19:29:04 14° SSW 19:29:04 14° SSW visible
27 Jan -2.2 18:36:38 10° SSW 18:39:05 21° SSE 18:39:05 21° SSE visible
28 Jan -1.6 17:45:18 10° S 17:47:03 14° SE 17:48:48 10° ESE visible
28 Jan -2.2 19:19:47 10° SW 19:21:42 30° SW 19:21:42 30° SW visible
29 Jan -2.9 18:27:39 10° SW 18:30:41 36° SSE 18:31:34 29° ESE visible
29 Jan -0.6 20:03:42 10° W 20:04:13 14° W 20:04:13 14° W visible
30 Jan -2.3 17:35:43 10° SSW 17:38:26 24° SSE 17:41:08 10° E visible
30 Jan -3.3 19:11:19 10° WSW 19:14:02 56° SW 19:14:02 56° SW visible
31 Jan -3.6 18:19:00 10° WSW 18:22:12 57° SSE 18:23:48 26° E visible
31 Jan -1.0 19:55:22 10° W 19:56:27 19° W 19:56:27 19° W visible
